TimeCST,TemperatureF,Dew PointF,Humidity,Sea Level PressureIn,VisibilityMPH,Wind Direction,Wind SpeedMPH,Gust SpeedMPH,PrecipitationIn,Events,Conditions,WindDirDegrees,DateUTC
12:53 AM,39.0,33.1,79,30.09,10.0,SSE,3.5,-,N/A,,Clear,150,2012-11-18 06:53:00
1:53 AM,37.4,32.0,81,30.05,10.0,Calm,Calm,-,N/A,,Clear,0,2012-11-18 07:53:00
2:53 AM,36.0,32.0,86,30.09,10.0,Calm,Calm,-,N/A,,Clear,0,2012-11-18 08:53:00
3:53 AM,35.1,32.0,89,30.08,10.0,Calm,Calm,-,N/A,,Scattered Clouds,0,2012-11-18 09:53:00
4:53 AM,37.9,33.1,83,30.07,10.0,SE,3.5,-,N/A,,Clear,130,2012-11-18 10:53:00
5:53 AM,37.0,33.1,86,30.07,10.0,SE,3.5,-,N/A,,Partly Cloudy,130,2012-11-18 11:53:00
6:53 AM,37.9,34.0,86,30.06,10.0,SE,5.8,-,N/A,,Overcast,140,2012-11-18 12:53:00
7:53 AM,37.0,33.1,86,30.07,10.0,ESE,4.6,-,N/A,,Mostly Cloudy,120,2012-11-18 13:53:00
8:53 AM,37.9,34.0,86,30.06,10.0,ESE,4.6,-,N/A,,Clear,120,2012-11-18 14:53:00
9:53 AM,43.0,35.1,74,30.06,10.0,SE,5.8,-,N/A,,Clear,140,2012-11-18 15:53:00
10:53 AM,48.0,35.1,61,30.05,10.0,South,5.8,-,N/A,,Clear,170,2012-11-18 16:53:00
11:53 AM,50.0,35.1,57,30.03,10.0,SSE,5.8,-,N/A,,Clear,150,2012-11-18 17:53:00
12:53 PM,51.1,35.1,54,30.01,10.0,South,8.1,-,N/A,,Clear,170,2012-11-18 18:53:00
1:53 PM,52.0,35.1,53,29.99,10.0,SSE,6.9,-,N/A,,Clear,150,2012-11-18 19:53:00
2:53 PM,52.0,35.1,53,29.99,10.0,South,5.8,-,N/A,,Clear,170,2012-11-18 20:53:00
3:53 PM,48.9,35.1,59,30.00,10.0,South,4.6,-,N/A,,Clear,170,2012-11-18 21:53:00
4:53 PM,46.0,33.1,61,30.01,10.0,SSE,3.5,-,N/A,,Clear,160,2012-11-18 22:53:00
5:53 PM,42.1,32.0,67,30.02,10.0,SSE,3.5,-,N/A,,Clear,150,2012-11-18 23:53:00
6:53 PM,39.0,30.9,73,30.02,10.0,SE,4.6,-,N/A,,Clear,140,2012-11-19 00:53:00
7:53 PM,37.9,30.9,76,30.01,10.0,SE,4.6,-,N/A,,Clear,140,2012-11-19 01:53:00
8:53 PM,36.0,30.0,79,29.99,10.0,SE,4.6,-,N/A,,Clear,130,2012-11-19 02:53:00
9:53 PM,37.0,30.9,79,29.98,10.0,ESE,3.5,-,N/A,,Clear,120,2012-11-19 03:53:00
10:53 PM,36.0,30.9,82,29.97,10.0,SE,4.6,-,N/A,,Clear,130,2012-11-19 04:53:00
11:53 PM,35.1,30.0,82,29.96,10.0,SE,3.5,-,N/A,,Partly Cloudy,130,2012-11-19 05:53:00